Regional Weather Roundup
Issued by NWS

Home | Current Version | Previous Version | Text Only | Print | Product List | Glossary Off
Versions: 1 2 3 4 5 6 7 8 9 10 11 12 13 14 15 16 17 18 19 20 21 22 23 24 25 26 27 28 29 30 31 32 33 34 35 36 37 38 39 40 41 42 43 44 45 46 47 48 49 50

000
ASUS45 KBOU 211407
RWRCO

WEATHER ROUNDUP FOR COLORADO
NATIONAL WEATHER SERVICE DENVER/BOULDER CO
800 AM MDT MON AUG 21 2017

NOTE: "FAIR" INDICATES FEW OR NO CLOUDS BELOW 12000 FEET WITH NO
SIGNIFICANT WEATHER AND/OR OBSTRUCTIONS TO VISIBILITY.

COZ001>005-013-030-031-211500-
...NORTHWEST COLORADO...

CITY           SKY/WX    TMP DP  RH WIND       PRES   REMARKS
CRAIG          FAIR      50  41  71 CALM      30.28R
HAYDEN         FAIR      56  39  53 E8        30.30R
MEEKER         FAIR      61  39  44 NE3       30.27R
RABBIT EARS PA FAIR      54  34  47 W7        30.55R
STEAMBOAT SPGS FAIR      50  40  69 SE5       30.31S
WALDEN         FAIR      46  36  66 CALM      30.40R
$$

COZ006>008-011-211500-
...WEST CENTRAL VALLEYS...

CITY           SKY/WX    TMP DP  RH WIND       PRES   REMARKS
GRAND JUNCTION FAIR      70  39  32 E6        30.14R
MONTROSE       FAIR      65  43  44 SE7       30.23R
EAGLE          FAIR      55  38  52 E3        30.33R
RIFLE          FAIR      61  41  47 CALM      30.21R
DELTA          FAIR      67  40  37 CALM      30.19R
NUCLA          FAIR      63  39  42 SE6       30.29R
$$

COZ017>023-064>068-211500-
...SOUTHWEST COLORADO...

CITY           SKY/WX    TMP DP  RH WIND       PRES   REMARKS
DURANGO        CLOUDY    55  45  68 CALM      30.30R
CORTEZ         FAIR      61  51  70 CALM      30.26R
PAGOSA SPRINGS FAIR      56  43  60 CALM      30.36R
TELLURIDE      FAIR      54  39  57 E3        30.47R
WOLF CREEK PAS CLOUDY    46  34  61 CALM      30.65R
$$

COZ009-010-012-014-032>034-037-058>063-211500-
...CENTRAL COLORADO...

CITY           SKY/WX    TMP DP  RH WIND       PRES   REMARKS
ASPEN          FAIR      56  40  55 CALM      30.35R
BUENA VISTA    FAIR      58  39  50 NW10      30.36S
COPPER MTN     FAIR      54  32  43 CALM      30.65R
BERTHOUD PASS  FAIR      45  39  81 NW13G22   30.67R
COTTONWOOD PAS PTSUNNY   59  34  38 W6        30.47S
GUNNISON       FAIR      54  41  61 CALM      30.37S
KREMMLING      FAIR      54  41  62 CALM      30.38S
LEADVILLE      FAIR      43  36  76 CALM      30.49R
MONARCH PASS   FAIR      46  32  57 W12       30.72S
SALIDA         FAIR      59  42  54 W3        30.41R
SUNLIGHT       FAIR      52  32  46 CALM      30.58S
WILKERSON PASS FAIR      55  30  38 NE8       30.60R
$$

COZ069>075-211500-
...SAN LUIS VALLEY/SANGRE DE CRISTO MOUNTAINS...

CITY           SKY/WX    TMP DP  RH WIND       PRES   REMARKS
ALAMOSA        FAIR      51  45  79 CALM      30.33R
DEL NORTE      FAIR      56  41  58 W7        30.36R
LA VETA PASS   NOT AVBL
SAGUACHE       FAIR      55  41  58 CALM      30.36R
$$

COZ035-036-038>040-211500-
...NORTHERN COLORADO FRONT RANGE...

CITY           SKY/WX    TMP DP  RH WIND       PRES   REMARKS
DENVER INTL AP PTSUNNY   70  46  42 W9        30.13R
DMNS CITY PARK   N/A     72  48  42 W1G7      30.13R
AURORA         MOSUNNY   68  47  46 SW8       30.15R
FRONT RANGE AP FAIR      70  46  43 W8        30.14R
ERIE MUNI ARPT FAIR      64  46  52 CALM      30.16S
BOULDER MUN AP FAIR      66  43  42 SW3       30.13R
CENTENNIAL     FAIR      69  44  40 W7        30.16R
BROOMFIELD     PTSUNNY   66  46  48 W6        30.15S
FORT COLLINS   FAIR      64  54  69 CALM      30.12R
LONGMONT       NOT AVBL
$$

COZ041-046-047-076>085-087-088-211500-
...PIKES PEAK/PALMER DIVIDE AND SOUTHERN FOOTHILLS...

CITY           SKY/WX    TMP DP  RH WIND       PRES   REMARKS
COLO. SPRINGS  FAIR      69  48  47 NW3       30.19R
A. F. ACADEMY  FAIR      66  46  47 N6        30.20R
SCHRIEVER AFB  FAIR      73  44  35 N3        30.18R
CHEYENNE MTN   FAIR      71  41  34 CALM      30.18R
ELLICOTT       NOT AVBL
FALCON         FAIR      70  42  35 NW7       30.23S
FORT CARSON    FAIR      67  49  52 N5        30.15R
LIMON          FAIR      67  49  52 NW8       30.12R
MONUMENT HILL  FAIR      64  43  45 SW3       30.26R
CANON CITY     SUNNY     72  48  43 W16G22    30.14R
WALSENBURG     FAIR      73  43  33 W9        30.18S
TRINIDAD       PTSUNNY   66  49  54 W17       30.17R
$$

COZ042>045-048>051-090-091-211500-
...NORTHEAST COLORADO...

CITY           SKY/WX    TMP DP  RH WIND       PRES   REMARKS
GREELEY ARPT   FAIR      62  56  80 NW5       30.10R
AKRON          FAIR      69  51  52 W15       30.05S
BURLINGTON     FAIR      68  61  78 SW10      30.04R
WRAY           NOT AVBL
YUMA           FAIR      64  46  52 W10       30.01S
STERLING       FOG       63  63 100 CALM      30.02R VSB 1
HOLYOKE        FOG       63  61  94 W5        30.01R VSB<1/4
FORT MORGAN    FAIR      64  58  80 W5        30.06S
$$

COZ086-089-092>099-211500-
...SOUTHEAST COLORADO...

CITY           SKY/WX    TMP DP  RH WIND       PRES   REMARKS
PUEBLO         FAIR      66  49  54 NW5       30.08R
LA JUNTA       FAIR      67  54  63 W3        30.05S
LAMAR          FAIR      70  58  65 CALM      30.02R
SPRINGFIELD      N/A     68  61  78 SW13      30.08F
$$



USA.gov is the U.S. government's official web portal to all federal, state and local government web resources and services.